User: anonymous   Login
Location: �chenoz-la-M�line
(47.6009°N, 6.1354°E)
Time: 08:50:57
(UTC+00:00)
Language:

Cosmos 1689 Rocket - Orbit

View from above orbital plane
View from above orbital plane
View from above satellite
View from above satellite

Ground track
Ground track

The orbit data is extracted from the following two-line orbital elements,

1 16111U 85090B   21102.52779946  .00015246  00000-0  12255-3 0  9993
2 16111  97.4812 300.8780 0008416 225.8696 134.1875 15.71025891961864
Epoch (UTC): 12 April 2021 12:40:01
Eccentricity: 0.0008416
inclination: 97.4812°
perigee height: 350 km
apogee height: 361 km
right ascension of ascending node: 300.8780°
argument of perigee: 225.8696°
revolutions per day: 15.71025891
mean anomaly at epoch: 134.1875°
orbit number at epoch: 96186

The dashed part of the orbit path shows where the satellite is in the earth's shadow,  

DLR